GW2624 Weather Reports


Display with metric or nautical units.
time (UTC)temp
F
wind
direction
speed
MPH
gust
MPH
rain 1hr
in
rain 24hr
in
rain mn
in
humidity
%
barometer
mb
20260509014405 73 279 1.0 7.0 0.00 0.00 0.00 18 1004.4
20260509013403 74 224 1.0 3.0 0.00 0.00 0.00 17 1004.3
20260509012904 74 127 0.0 0.0 0.00 0.00 0.00 18 1004.3
20260509011405 75 328 0.0 3.0 0.00 0.00 0.00 17 1004.4
20260509005904 75 38 2.0 3.0 0.00 0.00 0.00 17 1004.5
20260509004903 75 136 1.0 2.0 0.00 0.00 0.00 16 1004.4
20260509004404 75 78 0.0 3.0 0.00 0.00 0.00 17 1004.4
20260509001904 76 116 0.0 3.0 0.00 0.00 0.00 16 1004.6
20260509000404 77 193 2.0 3.0 0.00 0.00 0.00 16 1004.7
20260508235904 77 239 2.0 7.0 0.00 0.00 0.00 15 1004.6
20260508235404 77 248 2.0 7.0 0.00 0.00 0.00 16 1004.7
20260508233904 76 269 2.0 5.0 0.00 0.00 0.00 16 1004.7
20260508233404 77 79 3.0 5.0 0.00 0.00 0.00 16 1004.7
20260508232905 77 109 2.0 7.0 0.00 0.00 0.00 15 1004.6
20260508231906 78 105 3.0 7.0 0.00 0.00 0.00 14 1004.8
20260508230905 79 31 1.0 3.0 0.00 0.00 0.00 16 1004.7
20260508224405 78 196 1.0 5.0 0.00 0.00 0.00 15 1005.0
20260508223905 78 97 1.0 5.0 0.00 0.00 0.00 16 1005.0
20260508223405 78 22 2.0 5.0 0.00 0.00 0.00 15 1005.2
20260508222905 78 305 1.0 5.0 0.00 0.00 0.00 16 1005.2
20260508221905 77 205 2.0 6.0 0.00 0.00 0.00 16 1005.4
20260508221405 78 205 2.0 6.0 0.00 0.00 0.00 16 1005.4
20260508220906 77 39 2.0 6.0 0.00 0.00 0.00 15 1005.6
20260508220405 76 203 2.0 6.0 0.00 0.00 0.00 17 1005.6
20260508215904 76 48 2.0 7.0 0.00 0.00 0.00 15 1005.6
20260508214405 76 217 5.0 10.0 0.00 0.00 0.00 16 1005.7
20260508212905 76 233 3.0 9.0 0.00 0.00 0.00 16 1006.1
20260508211905 77 202 3.0 7.0 0.00 0.00 0.00 15 1006.2
20260508211405 78 267 1.0 5.0 0.00 0.00 0.00 15 1006.3
20260508210905 78 237 2.0 5.0 0.00 0.00 0.00 16 1006.4
20260508204905 77 250 2.0 6.0 0.00 0.00 0.00 15 1006.5
20260508203905 76 217 2.0 9.0 0.00 0.00 0.00 16 1006.8
20260508202905 76 277 3.0 9.0 0.00 0.00 0.00 16 1007.0
20260508200905 76 349 2.0 8.0 0.00 0.00 0.00 15 1007.1
20260508194905 76 170 3.0 9.0 0.00 0.00 0.00 16 1007.3
20260508194405 76 325 2.0 9.0 0.00 0.00 0.00 16 1007.5
20260508193905 76 76 2.0 7.0 0.00 0.00 0.00 17 1007.5
20260508193405 76 352 2.0 7.0 0.00 0.00 0.00 17 1007.6
20260508192405 76 90 1.0 5.0 0.00 0.00 0.00 18 1007.7
20260508190905 74 238 2.0 7.0 0.00 0.00 0.00 19 1008.0
20260508190405 74 242 4.0 7.0 0.00 0.00 0.00 17 1008.1
20260508185405 75 303 2.0 7.0 0.00 0.00 0.00 18 1008.2
20260508184906 74 291 3.0 7.0 0.00 0.00 0.00 18 1008.4
20260508184406 74 343 3.0 8.0 0.00 0.00 0.00 19 1008.4
20260508183905 74 42 3.0 8.0 0.00 0.00 0.00 17 1008.4
20260508183405 74 297 2.0 6.0 0.00 0.00 0.00 18 1008.5
20260508182405 73 63 1.0 6.0 0.00 0.00 0.00 20 1008.7
20260508181405 73 327 2.0 6.0 0.00 0.00 0.00 18 1008.9
20260508180905 72 338 3.0 7.0 0.00 0.00 0.00 20 1008.9
20260508180406 72 32 2.0 7.0 0.00 0.00 0.00 20 1009.0
20260508175405 70 267 2.0 6.0 0.00 0.00 0.00 20 1009.3
20260508174905 71 268 2.0 6.0 0.00 0.00 0.00 21 1009.4
20260508173905 71 62 2.0 5.0 0.00 0.00 0.00 21 1009.6
20260508165905 69 3 1.0 3.0 0.00 0.00 0.00 23 1010.2
20260508164904 68 251 1.0 7.0 0.00 0.00 0.00 24 1010.2
20260508163905 66 247 2.0 7.0 0.00 0.00 0.00 22 1010.4
20260508162905 66 22 1.0 5.0 0.00 0.00 0.00 23 1010.4
20260508162405 65 296 1.0 6.0 0.00 0.00 0.00 25 1010.5
20260508161905 64 233 3.0 6.0 0.00 0.00 0.00 24 1010.4
20260508161405 64 230 2.0 3.0 0.00 0.00 0.00 23 1010.5
20260508160904 64 268 1.0 3.0 0.00 0.00 0.00 24 1010.5
20260508154406 62 322 3.0 6.0 0.00 0.00 0.00 24 1010.8
20260508153405 61 351 2.0 3.0 0.00 0.00 0.00 24 1010.8
20260508151405 60 300 2.0 3.0 0.00 0.00 0.00 26 1011.0
20260508145905 59 330 0.0 3.0 0.00 0.00 0.00 29 1011.0
20260508144405 58 242 0.0 5.0 0.00 0.00 0.00 31 1011.1
20260508143905 58 209 2.0 5.0 0.00 0.00 0.00 31 1011.1
20260508142905 57 257 1.0 2.0 0.00 0.00 0.00 35 1011.2
20260508141905 56 261 1.0 2.0 0.00 0.00 0.00 33 1011.4
20260508140905 54 323 0.0 3.0 0.00 0.00 0.00 35 1011.5
20260508140404 53 4 1.0 3.0 0.00 0.00 0.00 38 1011.5
20260508135405 51 144 0.0 2.0 0.00 0.00 0.00 44 1011.6
20260508134905 50 144 0.0 2.0 0.00 0.00 0.00 45 1011.7
20260508134405 49 144 0.0 3.0 0.00 0.00 0.00 46 1011.7
20260508133905 48 144 2.0 3.0 0.00 0.00 0.00 46 1011.7
20260508133405 47 144 1.0 3.0 0.00 0.00 0.00 48 1011.7
20260508132405 44 144 1.0 2.0 0.00 0.00 0.00 51 1011.7
20260508130905 41 144 1.0 3.0 0.00 0.00 0.00 54 1011.6
20260508130404 40 144 1.0 2.0 0.00 0.00 0.00 55 1011.5
20260508125405 40 144 0.0 3.0 0.00 0.00 0.00 55 1011.4
20260508122905 39 148 2.0 5.0 0.00 0.00 0.00 54 1011.4
20260508122405 39 149 1.0 3.0 0.00 0.00 0.00 55 1011.5
20260508121405 37 153 3.0 6.0 0.00 0.00 0.00 58 1011.5
20260508120905 36 140 2.0 3.0 0.00 0.00 0.00 60 1011.6
20260508115404 36 143 2.0 3.0 0.00 0.00 0.00 59 1011.4
20260508114406 36 143 0.0 1.0 0.00 0.00 0.00 60 1011.4
20260508113905 36 143 0.0 2.0 0.00 0.00 0.00 61 1011.4
20260508112404 37 143 1.0 2.0 0.00 0.00 0.00 57 1011.3
20260508111905 37 143 1.0 2.0 0.00 0.00 0.00 57 1011.2
20260508111405 37 143 0.0 2.0 0.00 0.00 0.00 56 1011.4
20260508110904 38 143 0.0 2.0 0.00 0.00 0.00 56 1011.2
20260508110404 38 143 0.0 2.0 0.00 0.00 0.00 56 1011.1
20260508105904 38 143 1.0 2.0 0.00 0.00 0.00 56 1011.1
20260508104905 38 143 0.0 2.0 0.00 0.00 0.00 55 1011.0
20260508104405 38 143 0.0 2.0 0.00 0.00 0.00 55 1010.8
20260508103404 38 143 1.0 3.0 0.00 0.00 0.00 54 1010.7
20260508102405 39 143 0.0 3.0 0.00 0.00 0.00 52 1010.5
20260508095904 40 143 0.0 2.0 0.00 0.00 0.00 48 1010.5
20260508094905 42 143 0.0 2.0 0.00 0.00 0.00 45 1010.5
20260508093405 43 143 0.0 1.0 0.00 0.00 0.00 41 1010.7
20260508092905 43 143 0.0 3.0 0.00 0.00 0.00 40 1010.7
20260508092405 43 143 1.0 3.0 0.00 0.00 0.00 39 1010.7
20260508085904 44 146 2.0 3.0 0.00 0.00 0.00 36 1010.9
20260508085405 44 144 2.0 3.0 0.00 0.00 0.00 35 1010.9
20260508082905 45 159 1.0 5.0 0.00 0.00 0.00 34 1011.2
20260508080905 45 144 3.0 7.0 0.00 0.00 0.00 33 1011.4
20260508074905 45 144 1.0 3.0 0.00 0.00 0.00 34 1011.6
20260508074405 44 145 1.0 3.0 0.00 0.00 0.00 34 1011.6
20260508073904 45 144 1.0 3.0 0.00 0.00 0.00 33 1011.7
20260508072905 44 144 1.0 5.0 0.00 0.00 0.00 34 1011.8
20260508071405 45 144 1.0 3.0 0.00 0.00 0.00 34 1011.7
20260508070905 45 144 2.0 3.0 0.00 0.00 0.00 34 1011.7
20260508070405 45 148 2.0 3.0 0.00 0.00 0.00 34 1011.7
20260508065404 45 149 1.0 2.0 0.00 0.00 0.00 33 1011.9
20260508063905 46 147 3.0 5.0 0.00 0.00 0.00 33 1011.9
20260508063405 46 144 1.0 3.0 0.00 0.00 0.00 33 1011.9
20260508062904 46 146 3.0 3.0 0.00 0.00 0.00 31 1011.9
20260508062404 46 146 2.0 3.0 0.00 0.00 0.00 32 1012.0
20260508061905 46 141 2.0 3.0 0.00 0.00 0.00 32 1012.0
20260508061404 46 141 2.0 5.0 0.00 0.00 0.00 33 1012.0
20260508055405 45 151 0.0 1.0 0.00 0.00 0.00 33 1012.1
20260508054905 45 151 0.0 0.0 0.00 0.00 0.00 34 1012.1
20260508054405 46 151 0.0 0.0 0.00 0.00 0.00 34 1012.1
20260508053905 46 151 0.0 0.0 0.00 0.00 0.00 34 1012.1
20260508050904 47 151 0.0 3.0 0.00 0.00 0.00 32 1012.1
20260508050405 48 157 1.0 3.0 0.00 0.00 0.00 32 1012.1
20260508045905 48 148 0.0 1.0 0.00 0.00 0.00 32 1012.1
20260508044904 49 148 0.0 3.0 0.00 0.00 0.00 31 1012.0
20260508044405 49 148 0.0 3.0 0.00 0.00 0.00 30 1012.1
20260508043905 49 148 3.0 3.0 0.00 0.00 0.00 29 1012.1
20260508042404 50 157 0.0 3.0 0.00 0.00 0.00 29 1012.0
20260508035404 54 5 0.0 2.0 0.00 0.00 0.00 24 1012.0
20260508032904 57 0 1.0 5.0 0.00 0.00 0.00 20 1011.7
20260508031905 58 127 1.0 5.0 0.00 0.00 0.00 17 1011.4
20260508031404 59 179 1.0 5.0 0.00 0.00 0.00 16 1011.3
20260508030404 60 165 2.0 7.0 0.00 0.00 0.00 16 1011.0
20260508025904 60 138 2.0 3.0 0.00 0.00 0.00 15 1010.9
20260508024904 61 131 1.0 5.0 0.00 0.00 0.00 15 1010.7
20260508024404 61 149 2.0 6.0 0.00 0.00 0.00 15 1010.7
20260508022405 62 136 2.0 7.0 0.00 0.00 0.00 14 1010.7
20260508021905 62 139 2.0 6.0 0.00 0.00 0.00 14 1010.8
20260508021405 63 137 2.0 6.0 0.00 0.00 0.00 14 1010.7
20260508020904 63 129 3.0 5.0 0.00 0.00 0.00 14 1010.7
20260508020405 63 148 2.0 5.0 0.00 0.00 0.00 14 1010.7